MSR773 RJFF-RKSI

Flight info

Callsign MSR773
Flight time 0h 57m
Altitude 34000
Route DGC G339 BEETL Y208 INVOK Z91 PSN Y782 BITUX Z53 BASEM Y685 GUKDO GUKDO2C
Aircraft B77W/H-SDE1E2E3FGHIJ2J3J4J5M1RWXY/LB1D1

Departure

Time 2026-05-04 21:21
Airport Fukuoka Airport (RJFF)

Arrival

Time 2026-05-04 22:18
Airport Incheon International Airport (RKSI)
Time Latitude Longitude Altitude Speed Heading
2026-05-04 20:51 33.58761 130.44394 35 ft 0 kts 240°
2026-05-04 21:08 33.58764 130.44402 35 ft 4 kts 240°
2026-05-04 21:08 33.58777 130.44430 35 ft 4 kts 240°
2026-05-04 21:09 33.58791 130.44459 35 ft 4 kts 240°
2026-05-04 21:09 33.58804 130.44487 34 ft 4 kts 240°
2026-05-04 21:09 33.58815 130.44512 36 ft 4 kts 260°
2026-05-04 21:09 33.58810 130.44536 33 ft 4 kts 323°
2026-05-04 21:10 33.58788 130.44552 35 ft 2 kts 331°
2026-05-04 21:10 33.58787 130.44553 35 ft 0 kts 331°
2026-05-04 21:12 33.58816 130.44533 36 ft 7 kts 331°
2026-05-04 21:12 33.58862 130.44503 37 ft 8 kts 331°
2026-05-04 21:12 33.58916 130.44467 37 ft 10 kts 330°
2026-05-04 21:12 33.58981 130.44423 35 ft 12 kts 331°
2026-05-04 21:13 33.59062 130.44369 34 ft 14 kts 330°
2026-05-04 21:13 33.59147 130.44312 35 ft 14 kts 329°
2026-05-04 21:13 33.59214 130.44269 35 ft 11 kts 332°
2026-05-04 21:13 33.59287 130.44221 34 ft 13 kts 331°
2026-05-04 21:14 33.59368 130.44166 34 ft 13 kts 330°
2026-05-04 21:14 33.59445 130.44112 35 ft 12 kts 330°
2026-05-04 21:14 33.59529 130.44076 33 ft 14 kts
2026-05-04 21:14 33.59600 130.44154 32 ft 15 kts 57°
2026-05-04 21:15 33.59652 130.44267 29 ft 16 kts 65°
2026-05-04 21:15 33.59631 130.44363 31 ft 13 kts 149°
2026-05-04 21:15 33.59602 130.44383 31 ft 0 kts 150°
2026-05-04 21:21 33.59476 130.44468 30 ft 59 kts 150°
2026-05-04 21:21 33.58842 130.44898 39 ft 145 kts 150°
2026-05-04 21:21 33.57813 130.45576 396 ft 179 kts 151°
2026-05-04 21:21 33.56702 130.46328 1260 ft 187 kts 151°
2026-05-04 21:22 33.55569 130.47124 2189 ft 192 kts 150°
2026-05-04 21:22 33.54336 130.47968 2852 ft 220 kts 152°
2026-05-04 21:22 33.52903 130.48913 3506 ft 244 kts 151°
2026-05-04 21:22 33.51381 130.49918 4566 ft 255 kts 150°
2026-05-04 21:23 33.49821 130.50951 5682 ft 265 kts 150°
2026-05-04 21:23 33.48170 130.52047 6711 ft 276 kts 151°
2026-05-04 21:23 33.46434 130.53078 7723 ft 280 kts 165°
2026-05-04 21:23 33.44491 130.53115 8742 ft 284 kts 198°
2026-05-04 21:24 33.42826 130.51886 9908 ft 284 kts 229°
2026-05-04 21:24 33.41793 130.49861 10859 ft 293 kts 251°
2026-05-04 21:24 33.41327 130.47387 11226 ft 320 kts 261°
2026-05-04 21:24 33.41155 130.44598 11487 ft 353 kts 276°
2026-05-04 21:25 33.41994 130.41829 12253 ft 368 kts 303°
2026-05-04 21:25 33.43720 130.39529 13241 ft 377 kts 319°
2026-05-04 21:25 33.46038 130.38012 14313 ft 386 kts 343°
2026-05-04 21:25 33.48740 130.37759 15407 ft 395 kts
2026-05-04 21:26 33.51416 130.38618 16333 ft 396 kts 13°
2026-05-04 21:26 33.54169 130.39058 16934 ft 405 kts 358°
2026-05-04 21:26 33.57004 130.38965 17891 ft 411 kts 355°
2026-05-04 21:26 33.59888 130.38866 18899 ft 416 kts 356°
2026-05-04 21:27 33.62796 130.38870 19811 ft 421 kts 357°
2026-05-04 21:27 33.65683 130.38715 20536 ft 422 kts 347°
2026-05-04 21:27 33.68496 130.37717 21322 ft 422 kts 332°
2026-05-04 21:27 33.71021 130.35952 22218 ft 417 kts 319°
2026-05-04 21:28 33.73290 130.33769 23021 ft 421 kts 317°
2026-05-04 21:28 33.75582 130.31531 23843 ft 426 kts 316°
2026-05-04 21:28 33.77885 130.29292 24573 ft 429 kts 316°
2026-05-04 21:28 33.80221 130.27035 25367 ft 431 kts 315°
2026-05-04 21:29 33.82573 130.24773 26135 ft 434 kts 315°
2026-05-04 21:29 33.84922 130.22519 26722 ft 440 kts 315°
2026-05-04 21:29 33.87336 130.20212 27351 ft 445 kts 315°
2026-05-04 21:29 33.89771 130.17887 28023 ft 448 kts 315°
2026-05-04 21:30 33.92213 130.15556 28684 ft 450 kts 314°
2026-05-04 21:30 33.94691 130.13186 29250 ft 456 kts 315°
2026-05-04 21:30 33.97190 130.10794 29732 ft 461 kts 315°
2026-05-04 21:30 33.99702 130.08388 30246 ft 464 kts 315°
2026-05-04 21:31 34.04751 130.03552 31208 ft 465 kts 314°
2026-05-04 21:31 34.07272 130.01136 31802 ft 463 kts 314°
2026-05-04 21:31 34.09791 129.98720 32403 ft 461 kts 314°
2026-05-04 21:32 34.12297 129.96311 32981 ft 459 kts 314°
2026-05-04 21:32 34.14792 129.93910 33551 ft 457 kts 313°
2026-05-04 21:32 34.17279 129.91514 34108 ft 456 kts 313°
2026-05-04 21:32 34.19747 129.89134 34574 ft 454 kts 313°
2026-05-04 21:33 34.22214 129.86753 35034 ft 453 kts 313°
2026-05-04 21:33 34.24680 129.84373 35508 ft 451 kts 313°
2026-05-04 21:33 34.27133 129.82005 35913 ft 451 kts 313°
2026-05-04 21:33 34.29585 129.79658 36331 ft 450 kts 313°
2026-05-04 21:34 34.32025 129.77334 36701 ft 450 kts 313°
2026-05-04 21:34 34.34487 129.74993 37125 ft 449 kts 313°
2026-05-04 21:34 34.36931 129.72667 37568 ft 447 kts 313°
2026-05-04 21:34 34.39381 129.70331 37977 ft 445 kts 312°
2026-05-04 21:35 34.41819 129.68000 38169 ft 448 kts 312°
2026-05-04 21:35 34.46707 129.63314 38141 ft 448 kts 312°
2026-05-04 21:36 34.51574 129.58653 38133 ft 443 kts 312°
2026-05-04 21:36 34.56405 129.54010 38184 ft 442 kts 312°
2026-05-04 21:37 34.61243 129.49352 38154 ft 444 kts 313°
2026-05-04 21:37 34.66067 129.44701 38147 ft 446 kts 313°
2026-05-04 21:38 34.70937 129.40001 38146 ft 448 kts 313°
2026-05-04 21:38 34.75832 129.35271 38143 ft 449 kts 313°
2026-05-04 21:39 34.80739 129.30523 38148 ft 451 kts 313°
2026-05-04 21:39 34.85690 129.25798 38140 ft 454 kts 315°
2026-05-04 21:40 34.90877 129.21426 38145 ft 460 kts 321°
2026-05-04 21:40 34.96583 129.17718 38143 ft 465 kts 324°
2026-05-04 21:41 35.02353 129.14119 38142 ft 465 kts 324°
2026-05-04 21:41 35.08109 129.10497 38150 ft 465 kts 324°
2026-05-04 21:42 35.13823 129.06864 38147 ft 465 kts 324°
2026-05-04 21:42 35.19561 129.03197 38157 ft 465 kts 324°
2026-05-04 21:43 35.25289 128.99531 38158 ft 465 kts 324°
2026-05-04 21:43 35.31027 128.95855 38153 ft 465 kts 324°
2026-05-04 21:44 35.36751 128.92180 38160 ft 465 kts 324°
2026-05-04 21:44 35.42459 128.88509 38185 ft 465 kts 325°
2026-05-04 21:45 35.48192 128.84819 38152 ft 465 kts 324°
2026-05-04 21:45 35.53919 128.81128 38149 ft 464 kts 324°
2026-05-04 21:46 35.59630 128.77438 38159 ft 463 kts 324°
2026-05-04 21:46 35.65328 128.73753 38164 ft 462 kts 324°
2026-05-04 21:47 35.71013 128.70068 38161 ft 462 kts 325°
2026-05-04 21:47 35.76676 128.66391 38147 ft 462 kts 325°
2026-05-04 21:48 35.81402 128.63318 38154 ft 462 kts 325°
2026-05-04 21:48 35.88009 128.59018 38159 ft 461 kts 325°
2026-05-04 21:49 35.93683 128.55316 38182 ft 461 kts 326°
2026-05-04 21:49 35.98407 128.52230 38163 ft 461 kts 326°
2026-05-04 21:50 36.04075 128.48521 38161 ft 461 kts 325°
2026-05-04 21:50 36.09754 128.44799 38152 ft 461 kts 325°
2026-05-04 21:51 36.15430 128.41075 38147 ft 461 kts 325°
2026-05-04 21:51 36.21062 128.37372 38170 ft 461 kts 326°
2026-05-04 21:52 36.26740 128.33632 38151 ft 461 kts 326°
2026-05-04 21:52 36.32408 128.29894 38157 ft 461 kts 326°
2026-05-04 21:53 36.38034 128.26176 38146 ft 461 kts 326°
2026-05-04 21:53 36.43685 128.22436 38146 ft 460 kts 326°
2026-05-04 21:54 36.49351 128.18680 38174 ft 460 kts 326°
2026-05-04 21:54 36.55001 128.14927 38152 ft 461 kts 326°
2026-05-04 21:55 36.60662 128.11162 38149 ft 461 kts 326°
2026-05-04 21:55 36.66323 128.07390 38155 ft 461 kts 326°
2026-05-04 21:56 36.71970 128.03621 38186 ft 460 kts 326°
2026-05-04 21:56 36.77590 127.99863 38163 ft 461 kts 326°
2026-05-04 21:57 36.82994 127.95672 38152 ft 452 kts 315°
2026-05-04 21:57 36.87373 127.90163 38092 ft 445 kts 304°
2026-05-04 21:57 36.89185 127.86985 37273 ft 452 kts 300°
2026-05-04 21:58 36.90929 127.83726 36588 ft 450 kts 301°
2026-05-04 21:58 36.92695 127.80497 35828 ft 449 kts 301°
2026-05-04 21:58 36.94487 127.77291 35003 ft 450 kts 302°
2026-05-04 21:58 36.96276 127.74131 34178 ft 451 kts 302°
2026-05-04 21:59 36.98089 127.70936 33270 ft 452 kts 303°
2026-05-04 21:59 36.99914 127.67710 32371 ft 452 kts 303°
2026-05-04 21:59 37.01724 127.64498 31758 ft 447 kts 303°
2026-05-04 21:59 37.03501 127.61327 31124 ft 444 kts 303°
2026-05-04 22:00 37.05262 127.58160 30512 ft 441 kts 303°
2026-05-04 22:00 37.07007 127.55014 29851 ft 438 kts 303°
2026-05-04 22:00 37.08716 127.51931 29188 ft 434 kts 303°
2026-05-04 22:00 37.10435 127.48833 28587 ft 430 kts 303°
2026-05-04 22:01 37.12125 127.45787 28397 ft 422 kts 304°
2026-05-04 22:01 37.13792 127.42791 27884 ft 418 kts 304°
2026-05-04 22:01 37.15455 127.39804 27218 ft 417 kts 304°
2026-05-04 22:01 37.17116 127.36817 26501 ft 417 kts 304°
2026-05-04 22:02 37.18779 127.33820 25738 ft 419 kts 303°
2026-05-04 22:02 37.20442 127.30820 24984 ft 421 kts 303°
2026-05-04 22:02 37.22120 127.27790 24300 ft 421 kts 303°
2026-05-04 22:02 37.23788 127.24776 23711 ft 419 kts 303°
2026-05-04 22:03 37.25439 127.21788 23075 ft 415 kts 303°
2026-05-04 22:03 37.27054 127.18865 22539 ft 410 kts 303°
2026-05-04 22:03 37.28673 127.15929 21934 ft 407 kts 304°
2026-05-04 22:03 37.30279 127.13015 21351 ft 404 kts 304°
2026-05-04 22:04 37.31874 127.10118 20765 ft 401 kts 304°
2026-05-04 22:04 37.33458 127.07238 20200 ft 399 kts 304°
2026-05-04 22:04 37.35032 127.04376 19658 ft 396 kts 304°
2026-05-04 22:04 37.36589 127.01541 19120 ft 394 kts 304°
2026-05-04 22:05 37.38147 126.98704 18616 ft 391 kts 304°
2026-05-04 22:05 37.39683 126.95902 18039 ft 389 kts 304°
2026-05-04 22:05 37.41216 126.93110 17665 ft 381 kts 304°
2026-05-04 22:05 37.42797 126.90571 17583 ft 367 kts 310°
2026-05-04 22:06 37.44472 126.88287 17412 ft 339 kts 313°
2026-05-04 22:06 37.46040 126.86227 17212 ft 310 kts 313°
2026-05-04 22:06 37.47468 126.84332 16988 ft 288 kts 312°
2026-05-04 22:06 37.48822 126.82504 16777 ft 282 kts 311°
2026-05-04 22:07 37.50132 126.80712 16615 ft 274 kts 311°
2026-05-04 22:07 37.51389 126.78979 16428 ft 267 kts 311°
2026-05-04 22:07 37.52635 126.77254 16142 ft 265 kts 311°
2026-05-04 22:07 37.53875 126.75535 15804 ft 265 kts 310°
2026-05-04 22:08 37.55109 126.73824 15483 ft 264 kts 310°
2026-05-04 22:08 37.56341 126.72115 15186 ft 262 kts 310°
2026-05-04 22:08 37.57569 126.70408 14892 ft 261 kts 310°
2026-05-04 22:08 37.58774 126.68736 14591 ft 260 kts 310°
2026-05-04 22:09 37.59988 126.67049 14312 ft 259 kts 310°
2026-05-04 22:09 37.61193 126.65374 14040 ft 257 kts 310°
2026-05-04 22:09 37.62392 126.63705 13730 ft 256 kts 309°
2026-05-04 22:09 37.63354 126.61861 13322 ft 251 kts 290°
2026-05-04 22:10 37.63966 126.59823 12901 ft 244 kts 289°
2026-05-04 22:10 37.64582 126.57814 12233 ft 246 kts 289°
2026-05-04 22:10 37.65202 126.55813 11503 ft 249 kts 290°
2026-05-04 22:10 37.65845 126.53772 10777 ft 251 kts 290°
2026-05-04 22:11 37.66493 126.51728 10091 ft 252 kts 290°
2026-05-04 22:11 37.67124 126.49656 9317 ft 251 kts 284°
2026-05-04 22:11 37.67437 126.47493 8556 ft 250 kts 275°
2026-05-04 22:11 37.67625 126.45364 7840 ft 250 kts 275°
2026-05-04 22:12 37.67827 126.43134 7079 ft 249 kts 275°
2026-05-04 22:12 37.67788 126.40980 6332 ft 246 kts 253°
2026-05-04 22:12 37.67069 126.39046 5579 ft 243 kts 237°
2026-05-04 22:12 37.66164 126.37248 4834 ft 242 kts 237°
2026-05-04 22:13 37.65274 126.35444 4070 ft 241 kts 237°
2026-05-04 22:13 37.64392 126.33652 3312 ft 240 kts 237°
2026-05-04 22:13 37.63510 126.31864 2584 ft 237 kts 238°
2026-05-04 22:13 37.62544 126.30350 2312 ft 214 kts 217°
2026-05-04 22:14 37.61225 126.29824 2146 ft 193 kts 181°
2026-05-04 22:14 37.60011 126.30393 2012 ft 182 kts 154°
2026-05-04 22:14 37.58929 126.31219 2008 ft 180 kts 152°
2026-05-04 22:14 37.57891 126.32094 1994 ft 179 kts 150°
2026-05-04 22:15 37.56870 126.32996 1998 ft 180 kts 150°
2026-05-04 22:15 37.55836 126.33918 2011 ft 182 kts 149°
2026-05-04 22:15 37.54811 126.34836 1916 ft 180 kts 149°
2026-05-04 22:15 37.53833 126.35711 1652 ft 167 kts 149°
2026-05-04 22:16 37.52927 126.36521 1433 ft 147 kts 149°
2026-05-04 22:16 37.52135 126.37226 1261 ft 141 kts 149°
2026-05-04 22:16 37.51332 126.37942 1067 ft 141 kts 148°
2026-05-04 22:16 37.50541 126.38646 849 ft 137 kts 147°
2026-05-04 22:17 37.49772 126.39333 668 ft 134 kts 146°
2026-05-04 22:17 37.49012 126.40011 475 ft 134 kts 145°
2026-05-04 22:17 37.48258 126.40683 316 ft 132 kts 144°
2026-05-04 22:17 37.47511 126.41356 135 ft 132 kts 145°
2026-05-04 22:18 37.46783 126.42002 39 ft 118 kts 145°
2026-05-04 22:18 37.46239 126.42487 38 ft 71 kts 144°
2026-05-04 22:18 37.45923 126.42768 38 ft 51 kts 144°
2026-05-04 22:18 37.45672 126.43014 38 ft 37 kts 126°
2026-05-04 22:19 37.45563 126.43275 38 ft 29 kts 114°
2026-05-04 22:19 37.45467 126.43439 38 ft 13 kts 143°
2026-05-04 22:19 37.45411 126.43490 38 ft 1 kts 143°
2026-05-04 22:19 37.45389 126.43509 38 ft 7 kts 146°
2026-05-04 22:20 37.45346 126.43547 38 ft 8 kts 144°
2026-05-04 22:20 37.45299 126.43589 38 ft 7 kts 143°
2026-05-04 22:20 37.45259 126.43626 38 ft 8 kts 145°
2026-05-04 22:20 37.45211 126.43667 38 ft 9 kts 144°
2026-05-04 22:21 37.45159 126.43715 38 ft 10 kts 144°
2026-05-04 22:21 37.45101 126.43768 38 ft 11 kts 143°
2026-05-04 22:21 37.45039 126.43825 38 ft 11 kts 143°
2026-05-04 22:21 37.44973 126.43888 38 ft 12 kts 142°
2026-05-04 22:22 37.44935 126.43925 38 ft 1 kts 142°
2026-05-04 22:22 37.44928 126.43932 38 ft 2 kts 142°
2026-05-04 22:22 37.44919 126.43950 38 ft 3 kts 114°
2026-05-04 22:22 37.44918 126.43977 38 ft 3 kts 84°
2026-05-04 22:23 37.44927 126.44008 38 ft 4 kts 64°
2026-05-04 22:23 37.44946 126.44047 38 ft 6 kts 56°
2026-05-04 22:23 37.44972 126.44093 38 ft 7 kts 55°
2026-05-04 22:23 37.45003 126.44149 38 ft 8 kts 55°
2026-05-04 22:24 37.45040 126.44213 38 ft 10 kts 53°
2026-05-04 22:24 37.45080 126.44285 37 ft 11 kts 54°
2026-05-04 22:24 37.45125 126.44364 37 ft 12 kts 54°
2026-05-04 22:24 37.45159 126.44451 37 ft 10 kts 103°
2026-05-04 22:25 37.45140 126.44484 37 ft 5 kts 135°
2026-05-04 22:25 37.45116 126.44510 37 ft 1 kts 141°
2026-05-04 22:25 37.45109 126.44518 37 ft 2 kts 141°
2026-05-04 22:25 37.45103 126.44523 36 ft 1 kts 141°